Year,Month,Day,Hour,Minute,Value (Times are PST for temperature in C)
2011,02,25,00,00,-5.90
2011,02,25,00,01,-5.90
2011,02,25,00,02,-5.90
2011,02,25,00,03,-5.90
2011,02,25,00,04,-5.90
2011,02,25,00,05,-5.90
2011,02,25,00,06,-5.90
2011,02,25,00,07,-5.90
2011,02,25,00,08,-5.90
2011,02,25,00,09,-6.00
2011,02,25,00,10,-6.00
2011,02,25,00,11,-6.00
2011,02,25,00,12,-6.10
2011,02,25,00,13,-6.10
2011,02,25,00,14,-6.20
2011,02,25,00,15,-6.20
2011,02,25,00,16,-6.20
2011,02,25,00,17,-6.20
2011,02,25,00,18,-6.20
2011,02,25,00,19,-6.20
2011,02,25,00,20,-6.10
2011,02,25,00,21,-6.10
2011,02,25,00,22,-6.00
2011,02,25,00,23,-5.90
2011,02,25,00,24,-5.90
2011,02,25,00,25,-5.90
2011,02,25,00,26,-5.90
2011,02,25,00,27,-5.80
2011,02,25,00,28,-5.80
2011,02,25,00,29,-5.80
2011,02,25,00,30,-5.80
2011,02,25,00,31,-5.80
2011,02,25,00,32,-5.80
2011,02,25,00,33,-5.80
2011,02,25,00,34,-5.80
2011,02,25,00,35,-5.90
2011,02,25,00,36,-5.90
2011,02,25,00,37,-5.90
2011,02,25,00,38,-5.90
2011,02,25,00,39,-5.90
2011,02,25,00,40,-5.90
2011,02,25,00,41,-5.90
2011,02,25,00,42,-5.90
2011,02,25,00,43,-5.90
2011,02,25,00,44,-5.90
2011,02,25,00,45,-5.90
2011,02,25,00,46,-5.90
2011,02,25,00,47,-5.80
2011,02,25,00,48,-5.80
2011,02,25,00,49,-5.90
2011,02,25,00,50,-5.90
2011,02,25,00,51,-5.90
2011,02,25,00,52,-5.90
2011,02,25,00,53,-5.90
2011,02,25,00,54,-5.90
2011,02,25,00,55,-5.90
2011,02,25,00,56,-6.00
2011,02,25,00,57,-5.90
2011,02,25,00,58,-5.90
2011,02,25,00,59,-5.90
2011,02,25,01,00,-5.90
2011,02,25,01,01,-5.90
2011,02,25,01,02,-5.90
2011,02,25,01,03,-5.90
2011,02,25,01,04,-6.00
2011,02,25,01,05,-6.00
2011,02,25,01,06,-6.00
2011,02,25,01,07,-6.00
2011,02,25,01,08,-6.10
2011,02,25,01,09,-6.10
2011,02,25,01,10,-6.10
2011,02,25,01,11,-6.00
2011,02,25,01,12,-6.00
2011,02,25,01,13,-6.00
2011,02,25,01,14,-6.00
2011,02,25,01,15,-6.00
2011,02,25,01,16,-6.00
2011,02,25,01,17,-6.10
2011,02,25,01,18,-6.20
2011,02,25,01,19,-6.30
2011,02,25,01,20,-6.30
2011,02,25,01,21,-6.30
2011,02,25,01,22,-6.30
2011,02,25,01,23,-6.30
2011,02,25,01,24,-6.30
2011,02,25,01,25,-6.30
2011,02,25,01,26,-6.30
2011,02,25,01,27,-6.30
2011,02,25,01,28,-6.30
2011,02,25,01,29,-6.30
2011,02,25,01,30,-6.30
2011,02,25,01,31,-6.30
2011,02,25,01,32,-6.30
2011,02,25,01,33,-6.30
2011,02,25,01,34,-6.30
2011,02,25,01,35,-6.30
2011,02,25,01,36,-6.30
2011,02,25,01,37,-6.30
2011,02,25,01,38,-6.30
2011,02,25,01,39,-6.30
2011,02,25,01,40,-6.30
2011,02,25,01,41,-6.20
2011,02,25,01,42,-6.20
2011,02,25,01,43,-6.20
2011,02,25,01,44,-6.10
2011,02,25,01,45,-6.10
2011,02,25,01,46,-6.10
2011,02,25,01,47,-6.00
2011,02,25,01,48,-6.00
2011,02,25,01,49,-6.00
2011,02,25,01,50,-6.00
2011,02,25,01,51,-5.90
2011,02,25,01,52,-5.90
2011,02,25,01,53,-5.90
2011,02,25,01,54,-5.90
2011,02,25,01,55,-5.80
2011,02,25,01,56,-5.80
2011,02,25,01,57,-5.80
2011,02,25,01,58,-5.80
2011,02,25,01,59,-5.70
2011,02,25,02,00,-5.70
2011,02,25,02,01,-5.70
2011,02,25,02,02,-5.70
2011,02,25,02,03,-5.70
2011,02,25,02,04,-5.70
2011,02,25,02,05,-5.60
2011,02,25,02,06,-5.60
2011,02,25,02,07,-5.50
2011,02,25,02,08,-5.50
2011,02,25,02,09,-5.40
2011,02,25,02,10,-5.30
2011,02,25,02,11,-5.30
2011,02,25,02,12,-5.20
2011,02,25,02,13,-5.20
2011,02,25,02,14,-5.20
2011,02,25,02,15,-5.10
2011,02,25,02,16,-5.10
2011,02,25,02,17,-5.10
2011,02,25,02,18,-5.20
2011,02,25,02,19,-5.20
2011,02,25,02,20,-5.20
2011,02,25,02,21,-5.20
2011,02,25,02,22,-5.20
2011,02,25,02,23,-5.20
2011,02,25,02,24,-5.20
2011,02,25,02,25,-5.20
2011,02,25,02,26,-5.20
2011,02,25,02,27,-5.10
2011,02,25,02,28,-5.10
2011,02,25,02,29,-5.10
2011,02,25,02,30,-5.10
2011,02,25,02,31,-5.00
2011,02,25,02,32,-5.10
2011,02,25,02,33,-5.00
2011,02,25,02,34,-5.10
2011,02,25,02,35,-5.10
2011,02,25,02,36,-5.10
2011,02,25,02,37,-5.10
2011,02,25,02,38,-5.10
2011,02,25,02,39,-5.10
2011,02,25,02,40,-5.20
2011,02,25,02,41,-5.20
2011,02,25,02,42,-5.20
2011,02,25,02,43,-5.20
2011,02,25,02,44,-5.10
2011,02,25,02,45,-5.10
2011,02,25,02,46,-5.10
2011,02,25,02,47,-5.10
2011,02,25,02,48,-5.10
2011,02,25,02,49,-5.10
2011,02,25,02,50,-5.10
2011,02,25,02,51,-5.10
2011,02,25,02,52,-5.10
2011,02,25,02,53,-5.10
2011,02,25,02,54,-5.10
2011,02,25,02,55,-5.10
2011,02,25,02,56,-5.10
2011,02,25,02,57,-5.00
2011,02,25,02,58,-5.00
2011,02,25,02,59,-5.00
2011,02,25,03,00,-5.00
2011,02,25,03,01,-5.10
2011,02,25,03,02,-5.10
2011,02,25,03,03,-5.10
2011,02,25,03,04,-5.00
2011,02,25,03,05,-5.00
2011,02,25,03,06,-4.90
2011,02,25,03,07,-4.90
2011,02,25,03,08,-4.90
2011,02,25,03,09,-4.90
2011,02,25,03,10,-4.90
2011,02,25,03,11,-5.00
2011,02,25,03,12,-5.00
2011,02,25,03,13,-5.00
2011,02,25,03,14,-5.00
2011,02,25,03,15,-5.00
2011,02,25,03,16,-5.00
2011,02,25,03,17,-5.00
2011,02,25,03,18,-4.90
2011,02,25,03,19,-4.90
2011,02,25,03,20,-4.90
2011,02,25,03,21,-5.00
2011,02,25,03,22,-5.00
2011,02,25,03,23,-5.00
2011,02,25,03,24,-5.10
2011,02,25,03,25,-5.10
2011,02,25,03,26,-5.10
2011,02,25,03,27,-5.10
2011,02,25,03,28,-5.10
2011,02,25,03,29,-5.20
2011,02,25,03,30,-5.20
2011,02,25,03,31,-5.20
2011,02,25,03,32,-5.20
2011,02,25,03,33,-5.20
2011,02,25,03,34,-5.20
2011,02,25,03,35,-5.30
2011,02,25,03,36,-5.30
2011,02,25,03,37,-5.30
2011,02,25,03,38,-5.30
2011,02,25,03,39,-5.30
2011,02,25,03,40,-5.40
2011,02,25,03,41,-5.40
2011,02,25,03,42,-5.40
2011,02,25,03,43,-5.30
2011,02,25,03,44,-5.20
2011,02,25,03,45,-5.20
2011,02,25,03,46,-5.20
2011,02,25,03,47,-5.20
2011,02,25,03,48,-5.20
2011,02,25,03,49,-5.20
2011,02,25,03,50,-5.10
2011,02,25,03,51,-5.10
2011,02,25,03,52,-5.10
2011,02,25,03,53,-5.10
2011,02,25,03,54,-5.10
2011,02,25,03,55,-5.10
2011,02,25,03,56,-5.10
2011,02,25,03,57,-5.10
2011,02,25,03,58,-5.10
2011,02,25,03,59,-5.20
2011,02,25,04,00,-5.20
2011,02,25,04,01,-5.20
2011,02,25,04,02,-5.20
2011,02,25,04,03,-5.20
2011,02,25,04,04,-5.20
2011,02,25,04,05,-5.20
2011,02,25,04,06,-5.20
2011,02,25,04,07,-5.20
2011,02,25,04,08,-5.20
2011,02,25,04,09,-5.30
2011,02,25,04,10,-5.30
2011,02,25,04,11,-5.30
2011,02,25,04,12,-5.30
2011,02,25,04,13,-5.30
2011,02,25,04,14,-5.30
2011,02,25,04,15,-5.30
2011,02,25,04,16,-5.30
2011,02,25,04,17,-5.30
2011,02,25,04,18,-5.30
2011,02,25,04,19,-5.30
2011,02,25,04,20,-5.30
2011,02,25,04,21,-5.40
2011,02,25,04,22,-5.40
2011,02,25,04,23,-5.40
2011,02,25,04,24,-5.40
2011,02,25,04,25,-5.40
2011,02,25,04,26,-5.40
2011,02,25,04,27,-5.30
2011,02,25,04,28,-5.20
2011,02,25,04,29,-5.20
2011,02,25,04,30,-5.20
2011,02,25,04,31,-5.20
2011,02,25,04,32,-5.20
2011,02,25,04,33,-5.20
2011,02,25,04,34,-5.20
2011,02,25,04,35,-5.30
2011,02,25,04,36,-5.30
2011,02,25,04,37,-5.20
2011,02,25,04,38,-5.20
2011,02,25,04,39,-5.20
2011,02,25,04,40,-5.10
2011,02,25,04,41,-5.10
2011,02,25,04,42,-5.20
2011,02,25,04,43,-5.20
2011,02,25,04,44,-5.20
2011,02,25,04,45,-5.20
2011,02,25,04,46,-5.30
2011,02,25,04,47,-5.30
2011,02,25,04,48,-5.20
2011,02,25,04,49,-5.20
2011,02,25,04,50,-5.20
2011,02,25,04,51,-5.10
2011,02,25,04,52,-5.10
2011,02,25,04,53,-5.20
2011,02,25,04,54,-5.20
2011,02,25,04,55,-5.20
2011,02,25,04,56,-5.20
2011,02,25,04,57,-5.20
2011,02,25,04,58,-5.30
2011,02,25,04,59,-5.20
2011,02,25,05,00,-5.20
2011,02,25,05,01,-5.20
2011,02,25,05,02,-5.20
2011,02,25,05,03,-5.20
2011,02,25,05,04,-5.20
2011,02,25,05,05,-5.20
2011,02,25,05,06,-5.20
2011,02,25,05,07,-5.20
2011,02,25,05,08,-5.30
2011,02,25,05,09,-5.30
2011,02,25,05,10,-5.30
2011,02,25,05,11,-5.30
2011,02,25,05,12,-5.30
2011,02,25,05,13,-5.40
2011,02,25,05,14,-5.40
2011,02,25,05,15,-5.40
2011,02,25,05,16,-5.40
2011,02,25,05,17,-5.50
2011,02,25,05,18,-5.50
2011,02,25,05,19,-5.60
2011,02,25,05,20,-5.60
2011,02,25,05,21,-5.60
2011,02,25,05,22,-5.60
2011,02,25,05,23,-5.60
2011,02,25,05,24,-5.60
2011,02,25,05,25,-5.60
2011,02,25,05,26,-5.60
2011,02,25,05,27,-5.60
2011,02,25,05,28,-5.60
2011,02,25,05,29,-5.60
2011,02,25,05,30,-5.60
2011,02,25,05,31,-5.60
2011,02,25,05,32,-5.50
2011,02,25,05,33,-5.50
2011,02,25,05,34,-5.40
2011,02,25,05,35,-5.40
2011,02,25,05,36,-5.40
2011,02,25,05,37,-5.40
2011,02,25,05,38,-5.40
2011,02,25,05,39,-5.40
2011,02,25,05,40,-5.40
2011,02,25,05,41,-5.40
2011,02,25,05,42,-5.50
2011,02,25,05,43,-5.50
2011,02,25,05,44,-5.50
2011,02,25,05,45,-5.50
2011,02,25,05,46,-5.50
2011,02,25,05,47,-5.50
2011,02,25,05,48,-5.60
2011,02,25,05,49,-5.60
2011,02,25,05,50,-5.70
2011,02,25,05,51,-5.80
2011,02,25,05,52,-5.80
2011,02,25,05,53,-5.80
2011,02,25,05,54,-5.90
2011,02,25,05,55,-5.90
2011,02,25,05,56,-5.90
2011,02,25,05,57,-6.00
2011,02,25,05,58,-6.00
2011,02,25,05,59,-6.00
2011,02,25,06,00,-5.90
2011,02,25,06,01,-5.90
2011,02,25,06,02,-5.90
2011,02,25,06,03,-5.90
2011,02,25,06,04,-6.00
2011,02,25,06,05,-6.00
2011,02,25,06,06,-5.90
2011,02,25,06,07,-5.90
2011,02,25,06,08,-5.90
2011,02,25,06,09,-5.90
2011,02,25,06,10,-5.90
2011,02,25,06,11,-5.80
2011,02,25,06,12,-5.80
2011,02,25,06,13,-5.80
2011,02,25,06,14,-5.80
2011,02,25,06,15,-5.80
2011,02,25,06,16,-5.80
2011,02,25,06,17,-5.80
2011,02,25,06,18,-5.90
2011,02,25,06,19,-5.90
2011,02,25,06,20,-5.90
2011,02,25,06,21,-5.90
2011,02,25,06,22,-5.90
2011,02,25,06,23,-5.80
2011,02,25,06,24,-5.70
2011,02,25,06,25,-5.70
2011,02,25,06,26,-5.60
2011,02,25,06,27,-5.60
2011,02,25,06,28,-5.70
2011,02,25,06,29,-5.70
2011,02,25,06,30,-5.70
2011,02,25,06,31,-5.80
2011,02,25,06,32,-5.80
2011,02,25,06,33,-5.80
2011,02,25,06,34,-5.80
2011,02,25,06,35,-5.80
2011,02,25,06,36,-5.80
2011,02,25,06,37,-5.80
2011,02,25,06,38,-5.90
2011,02,25,06,39,-5.90
2011,02,25,06,40,-5.90
2011,02,25,06,41,-6.00
2011,02,25,06,42,-6.00
2011,02,25,06,43,-6.10
2011,02,25,06,44,-6.10
2011,02,25,06,45,-6.20
2011,02,25,06,46,-6.20
2011,02,25,06,47,-6.20
2011,02,25,06,48,-6.20
2011,02,25,06,49,-6.20
2011,02,25,06,50,-6.20
2011,02,25,06,51,-6.20
2011,02,25,06,52,-6.20
2011,02,25,06,53,-6.20
2011,02,25,06,54,-6.20
2011,02,25,06,55,-6.20
2011,02,25,06,56,-6.20
2011,02,25,06,57,-6.20
2011,02,25,06,58,-6.20
2011,02,25,06,59,-6.20
2011,02,25,07,00,-6.20
2011,02,25,07,01,-6.20
2011,02,25,07,02,-6.20
2011,02,25,07,03,-6.20
2011,02,25,07,04,-6.20
2011,02,25,07,05,-6.20
2011,02,25,07,06,-6.20
2011,02,25,07,07,-6.20
2011,02,25,07,08,-6.20
2011,02,25,07,09,-6.10
2011,02,25,07,10,-6.10
2011,02,25,07,11,-6.10
2011,02,25,07,12,-6.10
2011,02,25,07,13,-6.10
2011,02,25,07,14,-6.10
2011,02,25,07,15,-6.10
2011,02,25,07,16,-6.10
2011,02,25,07,17,-6.10
2011,02,25,07,18,-6.10
2011,02,25,07,19,-6.10
2011,02,25,07,20,-6.10
2011,02,25,07,21,-6.20
2011,02,25,07,22,-6.20
2011,02,25,07,23,-6.20
2011,02,25,07,24,-6.20
2011,02,25,07,25,-6.20
2011,02,25,07,26,-6.20
2011,02,25,07,27,-6.20
2011,02,25,07,28,-6.20
2011,02,25,07,29,-6.20
2011,02,25,07,30,-6.20
2011,02,25,07,31,-6.10
2011,02,25,07,32,-6.10
2011,02,25,07,33,-6.00
2011,02,25,07,34,-6.00
2011,02,25,07,35,-5.90
2011,02,25,07,36,-5.90
2011,02,25,07,37,-5.90
2011,02,25,07,38,-5.90
2011,02,25,07,39,-5.80
2011,02,25,07,40,-5.80
2011,02,25,07,41,-5.80
2011,02,25,07,42,-5.80
2011,02,25,07,43,-5.70
2011,02,25,07,44,-5.70
2011,02,25,07,45,-5.70
2011,02,25,07,46,-5.70
2011,02,25,07,47,-5.70
2011,02,25,07,48,-5.70
2011,02,25,07,49,-5.70
2011,02,25,07,50,-5.70
2011,02,25,07,51,-5.70
2011,02,25,07,52,-5.70
2011,02,25,07,53,-5.70
2011,02,25,07,54,-5.70
2011,02,25,07,55,-5.70
2011,02,25,07,56,-5.70
2011,02,25,07,57,-5.70
2011,02,25,07,58,-5.70
2011,02,25,07,59,-5.60
2011,02,25,08,00,-5.60
2011,02,25,08,01,-5.60
2011,02,25,08,02,-5.60
2011,02,25,08,03,-5.50
2011,02,25,08,04,-5.50
2011,02,25,08,05,-5.40
2011,02,25,08,06,-5.40
2011,02,25,08,07,-5.40
2011,02,25,08,08,-5.40
2011,02,25,08,09,-5.40
2011,02,25,08,10,-5.30
2011,02,25,08,11,-5.30
2011,02,25,08,12,-5.30
2011,02,25,08,13,-5.30
2011,02,25,08,14,-5.30
2011,02,25,08,15,-5.30
2011,02,25,08,16,-5.30
2011,02,25,08,17,-5.30
2011,02,25,08,18,-5.20
2011,02,25,08,19,-5.20
2011,02,25,08,20,-5.20
2011,02,25,08,21,-5.20
2011,02,25,08,22,-5.20
2011,02,25,08,23,-5.20
2011,02,25,08,24,-5.10
2011,02,25,08,25,-5.20
2011,02,25,08,26,-5.20
2011,02,25,08,27,-5.10
2011,02,25,08,28,-5.10
2011,02,25,08,29,-5.10
2011,02,25,08,30,-5.10
2011,02,25,08,31,-5.10
2011,02,25,08,32,-5.10
2011,02,25,08,33,-5.10
2011,02,25,08,34,-5.10
2011,02,25,08,35,-5.10
2011,02,25,08,36,-5.10
2011,02,25,08,37,-5.10
2011,02,25,08,38,-5.10
2011,02,25,08,39,-5.10
2011,02,25,08,40,-5.00
2011,02,25,08,41,-5.00
2011,02,25,08,42,-5.00
2011,02,25,08,43,-5.00
2011,02,25,08,44,-5.00
2011,02,25,08,45,-5.00
2011,02,25,08,46,-5.00
2011,02,25,08,47,-5.00
2011,02,25,08,48,-5.00
2011,02,25,08,49,-5.00
2011,02,25,08,50,-5.00
2011,02,25,08,51,-5.00
2011,02,25,08,52,-4.90
2011,02,25,08,53,-4.90
2011,02,25,08,54,-4.90
2011,02,25,08,55,-4.90
2011,02,25,08,56,-4.90
2011,02,25,08,57,-4.90
2011,02,25,08,58,-4.90
2011,02,25,08,59,-4.90
2011,02,25,09,00,-4.90
2011,02,25,09,01,-4.80
2011,02,25,09,02,-4.80
2011,02,25,09,03,-4.80
2011,02,25,09,04,-4.80
2011,02,25,09,05,-4.80
2011,02,25,09,06,-4.80
2011,02,25,09,07,-4.80
2011,02,25,09,08,-4.80
2011,02,25,09,09,-4.80
2011,02,25,09,10,-4.70
2011,02,25,09,11,-4.70
2011,02,25,09,12,-4.70
2011,02,25,09,13,-4.70
2011,02,25,09,14,-4.70
2011,02,25,09,15,-4.70
2011,02,25,09,16,-4.70
2011,02,25,09,17,-4.70
2011,02,25,09,18,-4.70
2011,02,25,09,19,-4.70
2011,02,25,09,20,-4.60
2011,02,25,09,21,-4.60
2011,02,25,09,22,-4.60
2011,02,25,09,23,-4.60
2011,02,25,09,24,-4.60
2011,02,25,09,25,-4.70
2011,02,25,09,26,-4.70
2011,02,25,09,27,-4.70
2011,02,25,09,28,-4.70
2011,02,25,09,29,-4.60
2011,02,25,09,30,-4.60
2011,02,25,09,31,-4.50
2011,02,25,09,32,-4.50
2011,02,25,09,33,-4.40
2011,02,25,09,34,-4.40
2011,02,25,09,35,-4.30
2011,02,25,09,36,-4.30
2011,02,25,09,37,-4.30
2011,02,25,09,38,-4.40
2011,02,25,09,39,-4.40
2011,02,25,09,40,-4.40
2011,02,25,09,41,-4.40
2011,02,25,09,42,-4.50
2011,02,25,09,43,-4.40
2011,02,25,09,44,-4.40
2011,02,25,09,45,-4.40
2011,02,25,09,46,-4.30
2011,02,25,09,47,-4.30
2011,02,25,09,48,-4.30
2011,02,25,09,49,-4.20
2011,02,25,09,50,-4.20
2011,02,25,09,51,-4.10
2011,02,25,09,52,-4.00
2011,02,25,09,53,-4.00
2011,02,25,09,54,-4.00
2011,02,25,09,55,-4.10
2011,02,25,09,56,-4.10
2011,02,25,09,57,-4.10
2011,02,25,09,58,-4.10
2011,02,25,09,59,-4.10
2011,02,25,10,00,-4.10
2011,02,25,10,01,-4.10
2011,02,25,10,02,-4.00
2011,02,25,10,03,-4.00
2011,02,25,10,04,-3.90
2011,02,25,10,05,-3.90
2011,02,25,10,06,-3.90
2011,02,25,10,07,-3.80
2011,02,25,10,08,-3.80
2011,02,25,10,09,-3.80
2011,02,25,10,10,-3.80
2011,02,25,10,11,-3.70
2011,02,25,10,12,-3.70
2011,02,25,10,13,-3.70
2011,02,25,10,14,-3.70
2011,02,25,10,15,-3.60
2011,02,25,10,16,-3.60
2011,02,25,10,17,-3.60
2011,02,25,10,18,-3.60
2011,02,25,10,19,-3.60
2011,02,25,10,20,-3.60
2011,02,25,10,21,-3.60
2011,02,25,10,22,-3.60
2011,02,25,10,23,-3.60
2011,02,25,10,24,-3.60
2011,02,25,10,25,-3.60
2011,02,25,10,26,-3.60
2011,02,25,10,27,-3.60
2011,02,25,10,28,-3.60
2011,02,25,10,29,-3.60
2011,02,25,10,30,-3.60
2011,02,25,10,31,-3.60
2011,02,25,10,32,-3.60
2011,02,25,10,33,-3.60
2011,02,25,10,34,-3.60
2011,02,25,10,35,-3.60
2011,02,25,10,36,-3.60
2011,02,25,10,37,-3.70
2011,02,25,10,38,-3.70
2011,02,25,10,39,-3.70
2011,02,25,10,40,-3.70
2011,02,25,10,41,-3.70
2011,02,25,10,42,-3.70
2011,02,25,10,43,-3.70
2011,02,25,10,44,-3.60
2011,02,25,10,45,-3.60
2011,02,25,10,46,-3.60
2011,02,25,10,47,-3.70
2011,02,25,10,48,-3.70
2011,02,25,10,49,-3.70
2011,02,25,10,50,-3.60
2011,02,25,10,51,-3.60
2011,02,25,10,52,-3.60
2011,02,25,10,53,-3.60
2011,02,25,10,54,-3.50
2011,02,25,10,55,-3.50
2011,02,25,10,56,-3.40
2011,02,25,10,57,-3.40
2011,02,25,10,58,-3.30
2011,02,25,10,59,-3.20
2011,02,25,11,00,-3.20
2011,02,25,11,01,-3.10
2011,02,25,11,02,-3.10
2011,02,25,11,03,-3.10
2011,02,25,11,04,-3.10
2011,02,25,11,05,-3.10
2011,02,25,11,06,-3.10
2011,02,25,11,07,-3.20
2011,02,25,11,08,-3.20
2011,02,25,11,09,-3.20
2011,02,25,11,10,-3.20
2011,02,25,11,11,-3.20
2011,02,25,11,12,-3.20
2011,02,25,11,13,-3.20
2011,02,25,11,14,-3.30
2011,02,25,11,15,-3.30
2011,02,25,11,16,-3.30
2011,02,25,11,17,-3.30
2011,02,25,11,18,-3.30
2011,02,25,11,19,-3.30
2011,02,25,11,20,-3.30
2011,02,25,11,21,-3.30
2011,02,25,11,22,-3.40
2011,02,25,11,23,-3.40
2011,02,25,11,24,-3.40
2011,02,25,11,25,-3.40
2011,02,25,11,26,-3.40
2011,02,25,11,27,-3.40
2011,02,25,11,28,-3.40
2011,02,25,11,29,-3.30
2011,02,25,11,30,-3.20
2011,02,25,11,31,-3.20
2011,02,25,11,32,-3.20
2011,02,25,11,33,-3.10
2011,02,25,11,34,-3.10
2011,02,25,11,35,-3.10
2011,02,25,11,36,-3.00
2011,02,25,11,37,-2.90
2011,02,25,11,38,-2.80
2011,02,25,11,39,-2.80
2011,02,25,11,40,-2.80
2011,02,25,11,41,-2.80
2011,02,25,11,42,-2.80
2011,02,25,11,43,-2.80
2011,02,25,11,44,-2.70
2011,02,25,11,45,-2.70
2011,02,25,11,46,-2.70
2011,02,25,11,47,-2.80
2011,02,25,11,48,-2.90
2011,02,25,11,49,-2.90
2011,02,25,11,50,-3.00
2011,02,25,11,51,-3.10
2011,02,25,11,52,-3.20
2011,02,25,11,53,-3.20
2011,02,25,11,54,-3.20
2011,02,25,11,55,-3.20
2011,02,25,11,56,-3.20
2011,02,25,11,57,-3.20
2011,02,25,11,58,-3.20
2011,02,25,11,59,-3.20
2011,02,25,12,00,-3.20
2011,02,25,12,01,-3.20
2011,02,25,12,02,-3.20
2011,02,25,12,03,-3.20
2011,02,25,12,04,-3.20
2011,02,25,12,05,-3.20
2011,02,25,12,06,-3.20
2011,02,25,12,07,-3.10
2011,02,25,12,08,-3.00
2011,02,25,12,09,-3.00
2011,02,25,12,10,-2.80
2011,02,25,12,11,-2.70
2011,02,25,12,12,-2.60
2011,02,25,12,13,-2.50
2011,02,25,12,14,-2.40
2011,02,25,12,15,-2.30
2011,02,25,12,16,-2.30
2011,02,25,12,17,-2.30
2011,02,25,12,18,-2.30
2011,02,25,12,19,-2.30
2011,02,25,12,20,-2.20
2011,02,25,12,21,-2.20
2011,02,25,12,22,-2.30
2011,02,25,12,23,-2.30
2011,02,25,12,24,-2.20
2011,02,25,12,25,-2.20
2011,02,25,12,26,-2.20
2011,02,25,12,27,-2.20
2011,02,25,12,28,-2.30
2011,02,25,12,29,-2.40
2011,02,25,12,30,-2.40
2011,02,25,12,31,-2.50
2011,02,25,12,32,-2.50
2011,02,25,12,33,-2.50
2011,02,25,12,34,-2.40
2011,02,25,12,35,-2.30
2011,02,25,12,36,-2.20
2011,02,25,12,37,-2.10
2011,02,25,12,38,-2.10
2011,02,25,12,39,-2.10
2011,02,25,12,40,-2.10
2011,02,25,12,41,-2.20
2011,02,25,12,42,-2.20
2011,02,25,12,43,-2.20
2011,02,25,12,44,-2.20
2011,02,25,12,45,-2.30
2011,02,25,12,46,-2.30
2011,02,25,12,47,-2.30
2011,02,25,12,48,-2.30
2011,02,25,12,49,-2.30
2011,02,25,12,50,-2.30
2011,02,25,12,51,-2.30
2011,02,25,12,52,-2.30
2011,02,25,12,53,-2.30
2011,02,25,12,54,-2.40
2011,02,25,12,55,-2.40
2011,02,25,12,56,-2.50
2011,02,25,12,57,-2.50
2011,02,25,12,58,-2.50
2011,02,25,12,59,-2.40
2011,02,25,13,00,-2.40
2011,02,25,13,01,-2.40
2011,02,25,13,02,-2.40
2011,02,25,13,03,-2.40
2011,02,25,13,04,-2.40
2011,02,25,13,05,-2.40
2011,02,25,13,06,-2.30
2011,02,25,13,07,-2.30
2011,02,25,13,08,-2.20
2011,02,25,13,09,-2.10
2011,02,25,13,10,-2.10
2011,02,25,13,11,-2.10
2011,02,25,13,12,-2.00
2011,02,25,13,13,-2.00
2011,02,25,13,14,-2.10
2011,02,25,13,15,-2.20
2011,02,25,13,16,-2.30
2011,02,25,13,17,-2.30
2011,02,25,13,18,-2.30
2011,02,25,13,19,-2.30
2011,02,25,13,20,-2.30
2011,02,25,13,21,-2.30
2011,02,25,13,22,-2.20
2011,02,25,13,23,-2.10
2011,02,25,13,24,-2.10
2011,02,25,13,25,-2.00
2011,02,25,13,26,-1.90
2011,02,25,13,27,-1.80
2011,02,25,13,28,-1.80
2011,02,25,13,29,-1.80
2011,02,25,13,30,-1.80
2011,02,25,13,31,-1.80
2011,02,25,13,32,-1.80
2011,02,25,13,33,-1.80
2011,02,25,13,34,-1.70
2011,02,25,13,35,-1.70
2011,02,25,13,36,-1.70
2011,02,25,13,37,-1.70
2011,02,25,13,38,-1.70
2011,02,25,13,39,-1.60
2011,02,25,13,40,-1.50
2011,02,25,13,41,-1.50
2011,02,25,13,42,-1.50
2011,02,25,13,43,-1.50
2011,02,25,13,44,-1.60
2011,02,25,13,45,-1.60
2011,02,25,13,46,-1.60
2011,02,25,13,47,-1.70
2011,02,25,13,48,-1.60
2011,02,25,13,49,-1.70
2011,02,25,13,50,-1.70
2011,02,25,13,51,-1.70
2011,02,25,13,52,-1.70
2011,02,25,13,53,-1.70
2011,02,25,13,54,-1.70
2011,02,25,13,55,-1.60
2011,02,25,13,56,-1.60
2011,02,25,13,57,-1.60
2011,02,25,13,58,-1.70
2011,02,25,13,59,-1.70
2011,02,25,14,00,-1.70
2011,02,25,14,01,-1.70
2011,02,25,14,02,-1.70
2011,02,25,14,03,-1.70
2011,02,25,14,04,-1.70
2011,02,25,14,05,-1.60
2011,02,25,14,06,-1.50
2011,02,25,14,07,-1.50
2011,02,25,14,08,-1.40
2011,02,25,14,09,-1.40
2011,02,25,14,10,-1.40
2011,02,25,14,11,-1.50
2011,02,25,14,12,-1.60
2011,02,25,14,13,-1.60
2011,02,25,14,14,-1.60
2011,02,25,14,15,-1.60
2011,02,25,14,16,-1.50
2011,02,25,14,17,-1.50
2011,02,25,14,18,-1.40
2011,02,25,14,19,-1.30
2011,02,25,14,20,-1.20
2011,02,25,14,21,-1.20
2011,02,25,14,22,-1.10
2011,02,25,14,23,-1.10
2011,02,25,14,24,-1.10
2011,02,25,14,25,-1.10
2011,02,25,14,26,-1.10
2011,02,25,14,27,-1.10
2011,02,25,14,28,-1.10
2011,02,25,14,29,-1.10
2011,02,25,14,30,-1.20
2011,02,25,14,31,-1.20
2011,02,25,14,32,-1.20
2011,02,25,14,33,-1.20
2011,02,25,14,34,-1.30
2011,02,25,14,35,-1.30
2011,02,25,14,36,-1.40
2011,02,25,14,37,-1.40
2011,02,25,14,38,-1.40
2011,02,25,14,39,-1.30
2011,02,25,14,40,-1.30
2011,02,25,14,41,-1.30
2011,02,25,14,42,-1.30
2011,02,25,14,43,-1.30
2011,02,25,14,44,-1.30
2011,02,25,14,45,-1.30
2011,02,25,14,46,-1.20
2011,02,25,14,47,-1.20
2011,02,25,14,48,-1.20
2011,02,25,14,49,-1.10
2011,02,25,14,50,-1.10
2011,02,25,14,51,-1.10
2011,02,25,14,52,-1.10
2011,02,25,14,53,-1.10
2011,02,25,14,54,-1.10
2011,02,25,14,55,-1.20
2011,02,25,14,56,-1.20
2011,02,25,14,57,-1.20
2011,02,25,14,58,-1.20
2011,02,25,14,59,-1.10
2011,02,25,15,00,-1.10
2011,02,25,15,01,-1.10
2011,02,25,15,02,-1.10
2011,02,25,15,03,-1.10
2011,02,25,15,04,-1.10
2011,02,25,15,05,-1.20
2011,02,25,15,06,-1.20
2011,02,25,15,07,-1.20
2011,02,25,15,08,-1.30
2011,02,25,15,09,-1.30
2011,02,25,15,10,-1.30
2011,02,25,15,11,-1.30
2011,02,25,15,12,-1.30
2011,02,25,15,13,-1.30
2011,02,25,15,14,-1.40
2011,02,25,15,15,-1.40
2011,02,25,15,16,-1.40
2011,02,25,15,17,-1.40
2011,02,25,15,18,-1.40
2011,02,25,15,19,-1.40
2011,02,25,15,20,-1.40
2011,02,25,15,21,-1.40
2011,02,25,15,22,-1.50
2011,02,25,15,23,-1.50
2011,02,25,15,24,-1.50
2011,02,25,15,25,-1.50
2011,02,25,15,26,-1.40
2011,02,25,15,27,-1.30
2011,02,25,15,28,-1.20
2011,02,25,15,29,-1.10
2011,02,25,15,30,-1.00
2011,02,25,15,31,-1.00
2011,02,25,15,32,-1.00
2011,02,25,15,33,-1.00
2011,02,25,15,34,-0.90
2011,02,25,15,35,-0.90
2011,02,25,15,36,-0.90
2011,02,25,15,37,-0.90
2011,02,25,15,38,-0.90
2011,02,25,15,39,-1.00
2011,02,25,15,40,-1.00
2011,02,25,15,41,-1.10
2011,02,25,15,42,-1.10
2011,02,25,15,43,-1.10
2011,02,25,15,44,-1.10
2011,02,25,15,45,-1.10
2011,02,25,15,46,-1.10
2011,02,25,15,47,-1.10
2011,02,25,15,48,-1.10
2011,02,25,15,49,-1.10
2011,02,25,15,50,-1.00
2011,02,25,15,51,-1.10
2011,02,25,15,52,-1.10
2011,02,25,15,53,-1.10
2011,02,25,15,54,-1.10
2011,02,25,15,55,-1.00
2011,02,25,15,56,-1.10
2011,02,25,15,57,-1.10
2011,02,25,15,58,-1.10
2011,02,25,15,59,-1.20
2011,02,25,16,00,-1.10
2011,02,25,16,01,-1.00
2011,02,25,16,02,-1.00
2011,02,25,16,03,-0.90
2011,02,25,16,04,-0.90
2011,02,25,16,05,-0.90
2011,02,25,16,06,-1.00
2011,02,25,16,07,-1.10
2011,02,25,16,08,-1.10
2011,02,25,16,09,-1.10
2011,02,25,16,10,-1.00
2011,02,25,16,11,-1.00
2011,02,25,16,12,-0.90
2011,02,25,16,13,-0.90
2011,02,25,16,14,-0.90
2011,02,25,16,15,-0.90
2011,02,25,16,16,-0.90
2011,02,25,16,17,-0.80
2011,02,25,16,18,-0.80
2011,02,25,16,19,-0.80
2011,02,25,16,20,-0.80
2011,02,25,16,21,-0.80
2011,02,25,16,22,-0.70
2011,02,25,16,23,-0.70
2011,02,25,16,24,-0.70
2011,02,25,16,25,-0.80
2011,02,25,16,26,-0.90
2011,02,25,16,27,-1.00
2011,02,25,16,28,-1.10
2011,02,25,16,29,-1.10
2011,02,25,16,30,-1.10
2011,02,25,16,31,-1.10
2011,02,25,16,32,-1.10
2011,02,25,16,33,-1.10
2011,02,25,16,34,-1.10
2011,02,25,16,35,-1.10
2011,02,25,16,36,-1.10
2011,02,25,16,37,-1.10
2011,02,25,16,38,-1.10
2011,02,25,16,39,-1.10
2011,02,25,16,40,-1.10
2011,02,25,16,41,-1.10
2011,02,25,16,42,-1.10
2011,02,25,16,43,-1.20
2011,02,25,16,44,-1.20
2011,02,25,16,45,-1.20
2011,02,25,16,46,-1.30
2011,02,25,16,47,-1.30
2011,02,25,16,48,-1.30
2011,02,25,16,49,-1.30
2011,02,25,16,50,-1.30
2011,02,25,16,51,-1.30
2011,02,25,16,52,-1.40
2011,02,25,16,53,-1.40
2011,02,25,16,54,-1.40
2011,02,25,16,55,-1.40
2011,02,25,16,56,-1.40
2011,02,25,16,57,-1.40
2011,02,25,16,58,-1.50
2011,02,25,16,59,-1.50
2011,02,25,17,00,-1.60
2011,02,25,17,01,-1.60
2011,02,25,17,02,-1.60
2011,02,25,17,03,-1.60
2011,02,25,17,04,-1.60
2011,02,25,17,05,-1.70
2011,02,25,17,06,-1.70
2011,02,25,17,07,-1.70
2011,02,25,17,08,-1.70
2011,02,25,17,09,-1.70
2011,02,25,17,10,-1.70
2011,02,25,17,11,-1.70
2011,02,25,17,12,-1.80
2011,02,25,17,13,-1.80
2011,02,25,17,14,-1.80
2011,02,25,17,15,-1.80
2011,02,25,17,16,-1.80
2011,02,25,17,17,-1.80
2011,02,25,17,18,-1.80
2011,02,25,17,19,-1.90